Location: Auttagershofen
(48.1940°N, 10.0237°E)
Time: 21:51:50
(UTC+00:00)

BREEZE-M DEB (TANK) - Pass Details

Date: 18 January 2026
Orbit: 312 x 11317 km, 49.7° (Epoch: 17 February)

Event Time Altitude Azimuth Distance (km) Brightness Sun altitude
Exits shadow 05:19:00 79° 300° (WNW) 326 2.0 -17.0°
Maximum altitude 05:19:07 87° 8° (N) 319 2.0 -17.0°
Drops below altitude 10° 05:21:27 10° 104° (ESE) 1,273 6.5 -16.6°
Sets 05:23:35 0° 105° (ESE) 2,372 8.4 -16.2°
